UAE2569 ULLI-OMDB

Flight info

Callsign UAE2569
Flight time N/A
Altitude 35000
Route SUGIN1B SUGIN T873 VUZPU T490 EZMUB T439 USTOK T464 RUBEK T778 MOF M161 MILSO M875 AMDAR/N0489F350 M875 TAPIS L509 LAJAK M881 LAKRA G325 PG T385 TAPDO A454 VUSET R462 MIXAM P574 IMPED
Aircraft B77W/H-SDE1E2E3FGHIJ2J3J4J5M1RWXY/LB1D1

Departure

Time 2026-05-04 02:04
Airport Pulkovo Airport (ULLI)

Arrival

Time N/A
Airport Dubai International Airport (OMDB)
Time Latitude Longitude Altitude Speed Heading
2026-05-04 01:30 59.80035 30.26815 93 ft 0 kts 106°
2026-05-04 01:53 59.80040 30.26791 91 ft 2 kts 116°
2026-05-04 01:53 59.80048 30.26765 91 ft 2 kts 130°
2026-05-04 01:53 59.80058 30.26745 91 ft 2 kts 141°
2026-05-04 01:54 59.80070 30.26728 91 ft 2 kts 153°
2026-05-04 01:54 59.80084 30.26717 91 ft 2 kts 165°
2026-05-04 01:54 59.80099 30.26712 91 ft 2 kts 176°
2026-05-04 01:54 59.80114 30.26713 91 ft 2 kts 188°
2026-05-04 01:55 59.80128 30.26719 91 ft 2 kts 198°
2026-05-04 01:55 59.80139 30.26727 91 ft 0 kts 199°
2026-05-04 01:55 59.80140 30.26728 91 ft 0 kts 198°
2026-05-04 01:57 59.80133 30.26722 91 ft 7 kts 198°
2026-05-04 01:57 59.80072 30.26682 91 ft 9 kts 198°
2026-05-04 01:58 59.80013 30.26647 91 ft 10 kts 196°
2026-05-04 01:58 59.79922 30.26597 91 ft 14 kts 194°
2026-05-04 01:58 59.79900 30.26585 91 ft 4 kts 195°
2026-05-04 01:58 59.79829 30.26542 91 ft 16 kts 197°
2026-05-04 01:59 59.79703 30.26466 91 ft 21 kts 196°
2026-05-04 01:59 59.79568 30.26387 91 ft 18 kts 192°
2026-05-04 01:59 59.79478 30.26490 91 ft 14 kts 108°
2026-05-04 01:59 59.79452 30.26677 91 ft 13 kts 105°
2026-05-04 02:00 59.79427 30.26844 91 ft 12 kts 105°
2026-05-04 02:00 59.79406 30.26995 91 ft 10 kts 106°
2026-05-04 02:00 59.79386 30.27133 91 ft 9 kts 106°
2026-05-04 02:00 59.79367 30.27256 91 ft 8 kts 106°
2026-05-04 02:01 59.79351 30.27367 91 ft 8 kts 106°
2026-05-04 02:01 59.79336 30.27470 91 ft 7 kts 106°
2026-05-04 02:01 59.79318 30.27592 91 ft 15 kts 106°
2026-05-04 02:01 59.79279 30.27837 91 ft 18 kts 108°
2026-05-04 02:02 59.79244 30.28066 91 ft 16 kts 106°
2026-05-04 02:02 59.79182 30.28222 91 ft 13 kts 153°
2026-05-04 02:02 59.79081 30.28247 91 ft 8 kts 224°
2026-05-04 02:02 59.79057 30.28148 91 ft 5 kts 266°
2026-05-04 02:03 59.79062 30.28099 91 ft 14 kts 284°
2026-05-04 02:03 59.79160 30.27424 91 ft 92 kts 287°
2026-05-04 02:03 59.79423 30.25667 92 ft 169 kts 285°
2026-05-04 02:03 59.79799 30.23124 461 ft 207 kts 286°
2026-05-04 02:04 59.80200 30.20434 1651 ft 197 kts 285°
2026-05-04 02:04 59.80568 30.17950 2320 ft 196 kts 285°
2026-05-04 02:04 59.80968 30.15239 2640 ft 213 kts 285°
2026-05-04 02:04 59.81398 30.12318 3051 ft 228 kts 285°
2026-05-04 02:05 59.81855 30.09217 3483 ft 244 kts 285°
2026-05-04 02:05 59.82347 30.05866 3948 ft 260 kts 285°
2026-05-04 02:05 59.82644 30.02309 4595 ft 265 kts 265°
2026-05-04 02:05 59.82159 29.98794 5316 ft 268 kts 239°
2026-05-04 02:06 59.80932 29.96046 6030 ft 271 kts 214°
2026-05-04 02:06 59.79231 29.94510 6755 ft 274 kts 198°
2026-05-04 02:06 59.77408 29.93475 7511 ft 277 kts 193°
2026-05-04 02:06 59.75476 29.93413 8189 ft 283 kts 169°
2026-05-04 02:07 59.73688 29.94983 8828 ft 292 kts 144°
2026-05-04 02:07 59.72356 29.98021 9432 ft 301 kts 118°
2026-05-04 02:07 59.71625 30.01955 10051 ft 308 kts 107°
2026-05-04 02:07 59.71043 30.06111 10391 ft 325 kts 107°
2026-05-04 02:08 59.70419 30.10533 10718 ft 343 kts 107°
2026-05-04 02:08 59.69817 30.15189 11060 ft 361 kts 101°
2026-05-04 02:08 59.69570 30.20304 11430 ft 379 kts 93°
2026-05-04 02:08 59.69477 30.25591 11839 ft 395 kts 92°
2026-05-04 02:09 59.69384 30.31101 12266 ft 410 kts 92°
2026-05-04 02:09 59.69043 30.36761 12777 ft 421 kts 101°
2026-05-04 02:09 59.68457 30.42454 13488 ft 428 kts 102°
2026-05-04 02:09 59.67840 30.48224 14245 ft 434 kts 102°
2026-05-04 02:10 59.67215 30.54073 15008 ft 440 kts 102°
2026-05-04 02:10 59.66581 30.59969 15756 ft 446 kts 102°
2026-05-04 02:10 59.65926 30.66027 16508 ft 452 kts 103°
2026-05-04 02:10 59.65287 30.72067 17217 ft 458 kts 101°
2026-05-04 02:11 59.64766 30.78315 17922 ft 464 kts 100°
2026-05-04 02:11 59.64264 30.84595 18622 ft 469 kts 100°
2026-05-04 02:11 59.63751 30.90938 19304 ft 474 kts 100°
2026-05-04 02:11 59.63224 30.97358 19967 ft 480 kts 100°
2026-05-04 02:12 59.62680 31.03908 20624 ft 486 kts 100°
2026-05-04 02:12 59.62126 31.10502 21264 ft 491 kts 100°
2026-05-04 02:12 59.61566 31.17117 21870 ft 496 kts 100°
2026-05-04 02:12 59.60989 31.23884 22471 ft 501 kts 100°
2026-05-04 02:13 59.60410 31.30603 23047 ft 507 kts 100°
2026-05-04 02:13 59.59813 31.37503 23619 ft 512 kts 100°
2026-05-04 02:13 59.59213 31.44368 24164 ft 517 kts 100°
2026-05-04 02:13 59.58594 31.51417 24703 ft 523 kts 100°
2026-05-04 02:14 59.57966 31.58518 25255 ft 528 kts 100°
2026-05-04 02:14 59.57333 31.65617 25790 ft 533 kts 101°
2026-05-04 02:14 59.56686 31.72837 26332 ft 538 kts 101°
2026-05-04 02:14 59.56030 31.80101 26866 ft 544 kts 101°
2026-05-04 02:15 59.55365 31.87419 27406 ft 548 kts 101°
2026-05-04 02:15 59.54669 31.94906 27949 ft 553 kts 103°
2026-05-04 02:15 59.53622 32.02248 28465 ft 556 kts 111°
2026-05-04 02:15 59.52023 32.09383 29002 ft 557 kts 121°
2026-05-04 02:16 59.49996 32.15779 29578 ft 555 kts 130°
2026-05-04 02:16 59.47545 32.21538 30342 ft 548 kts 137°
2026-05-04 02:16 59.44878 32.26954 31186 ft 543 kts 139°
2026-05-04 02:16 59.42279 32.32113 31937 ft 540 kts 139°
2026-05-04 02:17 59.39621 32.37349 32619 ft 539 kts 139°
2026-05-04 02:17 59.36977 32.42527 33254 ft 538 kts 139°
2026-05-04 02:17 59.34335 32.47677 33853 ft 537 kts 139°
2026-05-04 02:17 59.31701 32.52793 34482 ft 534 kts 139°
2026-05-04 02:18 59.29080 32.57865 34906 ft 536 kts 139°
2026-05-04 02:18 59.26419 32.62995 34962 ft 536 kts 139°
2026-05-04 02:18 59.21139 32.73138 34915 ft 526 kts 140°
2026-05-04 02:19 59.15963 32.83022 34894 ft 526 kts 140°
2026-05-04 02:19 59.10742 32.92944 34815 ft 525 kts 140°
2026-05-04 02:20 59.05518 33.02822 34819 ft 526 kts 140°
2026-05-04 02:20 59.00291 33.12663 34842 ft 526 kts 139°
2026-05-04 02:21 58.95192 33.22789 34839 ft 529 kts 131°
2026-05-04 02:21 58.91381 33.34933 34840 ft 534 kts 114°
2026-05-04 02:22 58.89240 33.48674 34846 ft 534 kts 102°
2026-05-04 02:22 58.87585 33.62601 34844 ft 534 kts 102°
2026-05-04 02:23 58.85895 33.76463 34836 ft 533 kts 103°
2026-05-04 02:23 58.84166 33.90353 34840 ft 533 kts 103°
2026-05-04 02:24 58.82417 34.04188 34844 ft 533 kts 103°
2026-05-04 02:24 58.80639 34.18062 34844 ft 532 kts 103°
2026-05-04 02:25 58.78856 34.31828 34847 ft 531 kts 103°
2026-05-04 02:25 58.77065 34.45521 34861 ft 531 kts 103°
2026-05-04 02:26 58.75250 34.59254 34873 ft 530 kts 103°
2026-05-04 02:26 58.73430 34.72898 34870 ft 530 kts 104°
2026-05-04 02:27 58.71582 34.86630 34870 ft 530 kts 104°
2026-05-04 02:27 58.69735 35.00233 34869 ft 530 kts 104°
2026-05-04 02:28 58.67864 35.13892 34871 ft 530 kts 104°
2026-05-04 02:28 58.65978 35.27534 34873 ft 529 kts 104°
2026-05-04 02:29 58.64087 35.41099 34875 ft 529 kts 104°
2026-05-04 02:29 58.62189 35.54591 34879 ft 528 kts 104°
2026-05-04 02:30 58.60274 35.68093 34877 ft 527 kts 105°
2026-05-04 02:30 58.58148 35.81537 34875 ft 526 kts 113°
2026-05-04 02:31 58.55004 35.94134 34879 ft 526 kts 117°
2026-05-04 02:31 58.51747 36.06589 34879 ft 526 kts 117°
2026-05-04 02:32 58.48485 36.18946 34880 ft 524 kts 117°
2026-05-04 02:32 58.45191 36.31337 34878 ft 524 kts 117°
2026-05-04 02:33 58.41879 36.43708 34879 ft 524 kts 117°
2026-05-04 02:33 58.38569 36.55998 34883 ft 524 kts 117°
2026-05-04 02:34 58.35257 36.68223 34882 ft 524 kts 118°
2026-05-04 02:34 58.31904 36.80533 34879 ft 523 kts 118°
2026-05-04 02:35 58.28560 36.92742 34880 ft 522 kts 118°
2026-05-04 02:35 58.25210 37.04908 34882 ft 522 kts 118°
2026-05-04 02:36 58.21867 37.16984 34884 ft 521 kts 118°
2026-05-04 02:36 58.18479 37.29155 34888 ft 521 kts 118°
2026-05-04 02:37 58.15110 37.41196 34890 ft 520 kts 118°
2026-05-04 02:37 58.11718 37.53256 34894 ft 520 kts 118°
2026-05-04 02:38 58.08329 37.65238 34896 ft 519 kts 119°
2026-05-04 02:38 58.04941 37.77161 34884 ft 519 kts 119°
2026-05-04 02:39 58.01527 37.89108 34875 ft 518 kts 119°
2026-05-04 02:39 57.98100 38.01040 34870 ft 518 kts 119°
2026-05-04 02:40 57.94690 38.12851 34870 ft 517 kts 119°
2026-05-04 02:40 57.91246 38.24720 34871 ft 517 kts 119°
2026-05-04 02:41 57.87812 38.36497 34867 ft 517 kts 119°
2026-05-04 02:41 57.84340 38.48341 34866 ft 517 kts 119°
2026-05-04 02:42 57.80883 38.60072 34867 ft 516 kts 118°
2026-05-04 02:42 57.77419 38.71769 34862 ft 515 kts 120°
2026-05-04 02:43 57.73945 38.83442 34862 ft 515 kts 120°
2026-05-04 02:43 57.70471 38.95056 34862 ft 514 kts 119°
2026-05-04 02:44 57.66987 39.06645 34862 ft 513 kts 119°
2026-05-04 02:44 57.63500 39.18191 34864 ft 512 kts 119°
2026-05-04 02:45 57.60005 39.29703 34864 ft 511 kts 119°
2026-05-04 02:45 57.56509 39.41163 34865 ft 510 kts 119°
2026-05-04 02:46 57.53012 39.52568 34866 ft 510 kts 119°
2026-05-04 02:46 57.49513 39.63930 34867 ft 510 kts 119°
2026-05-04 02:47 57.45974 39.75360 34864 ft 510 kts 120°
2026-05-04 02:47 57.42450 39.86691 34864 ft 510 kts 120°
2026-05-04 02:48 57.38915 39.98001 34864 ft 510 kts 120°
2026-05-04 02:48 57.35365 40.09307 34863 ft 509 kts 120°
2026-05-04 02:49 57.31537 40.20259 34861 ft 509 kts 124°
2026-05-04 02:49 57.27584 40.30992 34859 ft 508 kts 124°
2026-05-04 02:50 57.23614 40.41708 34860 ft 508 kts 124°
2026-05-04 02:50 57.19616 40.52443 34862 ft 507 kts 124°
2026-05-04 02:51 57.15629 40.63099 34864 ft 507 kts 124°
2026-05-04 02:51 57.11637 40.73718 34863 ft 506 kts 125°
2026-05-04 02:52 57.07655 40.84263 34865 ft 506 kts 125°
2026-05-04 02:52 57.03623 40.94889 34868 ft 506 kts 125°
2026-05-04 02:53 56.99625 41.05380 34871 ft 505 kts 125°
2026-05-04 02:53 56.95597 41.15904 34873 ft 505 kts 125°
2026-05-04 02:54 56.91592 41.26322 34876 ft 504 kts 125°
2026-05-04 02:54 56.87539 41.36820 34874 ft 504 kts 124°
2026-05-04 02:55 56.81501 41.52378 34878 ft 504 kts 124°
2026-05-04 02:56 56.77437 41.62787 34880 ft 504 kts 124°
2026-05-04 02:56 56.73377 41.73149 34880 ft 503 kts 126°
2026-05-04 02:57 56.69328 41.83436 34883 ft 503 kts 126°
2026-05-04 02:57 56.65281 41.93676 34886 ft 502 kts 126°
2026-05-04 02:58 56.61214 42.03923 34889 ft 502 kts 125°
2026-05-04 02:58 56.57139 42.14145 34890 ft 501 kts 125°
2026-05-04 02:59 56.53044 42.24376 34892 ft 501 kts 125°
2026-05-04 02:59 56.48963 42.34526 34902 ft 501 kts 125°
2026-05-04 03:00 56.44890 42.44617 34905 ft 501 kts 125°
2026-05-04 03:00 56.40789 42.54736 34907 ft 500 kts 125°
2026-05-04 03:01 56.36670 42.64855 34908 ft 500 kts 125°
2026-05-04 03:01 56.32566 42.74895 34907 ft 500 kts 126°
2026-05-04 03:02 56.28445 42.84935 34909 ft 500 kts 126°
2026-05-04 03:02 56.24304 42.94984 34911 ft 500 kts 126°
2026-05-04 03:03 56.20189 43.04928 34913 ft 500 kts 126°
2026-05-04 03:03 56.16040 43.14913 34914 ft 500 kts 126°
2026-05-04 03:04 56.12492 43.25556 34913 ft 498 kts 111°
2026-05-04 03:04 56.10338 43.37239 34919 ft 496 kts 105°
2026-05-04 03:05 56.08321 43.48992 34919 ft 495 kts 105°
2026-05-04 03:05 56.06283 43.60644 34922 ft 495 kts 105°
2026-05-04 03:06 56.04203 43.72372 34920 ft 497 kts 106°
2026-05-04 03:06 56.02101 43.84110 34914 ft 497 kts 107°
2026-05-04 03:07 55.99995 43.95765 34914 ft 496 kts 107°
2026-05-04 03:07 55.97870 44.07441 34918 ft 496 kts 107°
2026-05-04 03:08 55.95728 44.19131 34919 ft 496 kts 107°
2026-05-04 03:08 55.93581 44.30773 34920 ft 496 kts 106°
2026-05-04 03:09 55.91427 44.42379 34922 ft 495 kts 106°
2026-05-04 03:09 55.89264 44.53961 34919 ft 495 kts 106°
2026-05-04 03:10 55.87091 44.65525 34919 ft 495 kts 107°
2026-05-04 03:10 55.84901 44.77104 34918 ft 494 kts 107°
2026-05-04 03:11 55.82715 44.88598 34920 ft 493 kts 107°
2026-05-04 03:11 55.80507 45.00132 34924 ft 492 kts 107°
2026-05-04 03:12 55.78315 45.11517 34927 ft 491 kts 107°
2026-05-04 03:12 55.76095 45.22982 34932 ft 490 kts 107°
2026-05-04 03:13 55.73880 45.34351 34935 ft 489 kts 107°
2026-05-04 03:13 55.71652 45.45721 34940 ft 489 kts 107°
2026-05-04 03:14 55.69429 45.56997 34945 ft 488 kts 107°
2026-05-04 03:14 55.67187 45.68310 34951 ft 489 kts 107°
2026-05-04 03:15 55.64929 45.79633 34954 ft 489 kts 107°
2026-05-04 03:15 55.62655 45.90968 34956 ft 488 kts 108°
2026-05-04 03:16 55.60381 46.02226 34957 ft 488 kts 108°
2026-05-04 03:16 55.58105 46.13434 34951 ft 488 kts 107°
2026-05-04 03:17 55.55810 46.24672 34952 ft 488 kts 107°
2026-05-04 03:17 55.53469 46.35913 34947 ft 489 kts 111°
2026-05-04 03:18 55.49981 46.46164 34949 ft 493 kts 128°
2026-05-04 03:18 55.45029 46.54533 34950 ft 496 kts 138°
2026-05-04 03:19 55.39785 46.62271 34949 ft 495 kts 138°
2026-05-04 03:19 55.34530 46.69976 34949 ft 495 kts 139°
2026-05-04 03:20 55.29238 46.77702 34950 ft 495 kts 139°
2026-05-04 03:20 55.23939 46.85406 34952 ft 495 kts 139°
2026-05-04 03:21 55.18672 46.93034 34953 ft 494 kts 139°
2026-05-04 03:21 55.13385 47.00664 34955 ft 494 kts 139°
2026-05-04 03:22 55.08113 47.08248 34957 ft 493 kts 139°
2026-05-04 03:22 55.02823 47.15828 34960 ft 493 kts 139°
2026-05-04 03:23 54.97539 47.23371 34961 ft 493 kts 139°
2026-05-04 03:23 54.92250 47.30897 34963 ft 493 kts 139°
2026-05-04 03:24 54.86937 47.38429 34962 ft 492 kts 139°
2026-05-04 03:24 54.81643 47.45909 34963 ft 492 kts 139°
2026-05-04 03:25 54.76372 47.53328 34966 ft 492 kts 139°
2026-05-04 03:25 54.71086 47.60741 34967 ft 492 kts 139°
2026-05-04 03:26 54.65783 47.68153 34970 ft 492 kts 140°
2026-05-04 03:26 54.60459 47.75569 34971 ft 492 kts 140°